Change the Weather History Date:

Saturday, August 3, 2013

  Actual Average Record
Temperature  
Mean Temperature 69 °F -  
Max Temperature 72 °F 77 °F 97 °F (1975)
Min Temperature 66 °F 65 °F 52 °F (1953)
Cooling Degree Days 4    
Growing Degree Days 19 (Base 50)    
Moisture  
Dew Point 66 °F    
Average Humidity 90    
Maximum Humidity 96    
Minimum Humidity 78    
Precipitation  
Precipitation 0.25 in - - ()
Sea Level Pressure  
Sea Level Pressure 29.88 in    
Wind  
Wind Speed 13 mph (WSW)    
Max Wind Speed 18 mph    
Max Gust Speed 26 mph    
Visibility 7 miles    
Events Rain    
Averages and records for this station are not official NWS values.
T = Trace of Precipitation, MM = Missing Value Source: NWS Daily Summary

Daily Weather History Graph

Daily Weather History Graph

Search for Another Location

Airport or City:

Trip Planner

Search our weather history database for the weather conditions in past years. The results will help you decide how hot, cold, wet, or windy it might be!

Date:

Astronomy

Aug. 03, 2013 Rise Set
Actual Time 5:37 AM EDT 7:54 PM EDT
Civil Twilight 5:06 AM EDT 8:25 PM EDT
Nautical Twilight 4:28 AM EDT 9:03 PM EDT
Astronomical Twilight 3:46 AM EDT 9:44 PM EDT
Moon 2:43 AM EDT (8/3) 5:34 PM EDT (8/3)
Length of Visible Light 15h 18m
Length of Day
14h 16m
Waning Crescent, 9% of the Moon is Illuminated
Aug 3
Waning Crescent
Aug 6
New
Aug 14
First Quarter
Aug 20
Full
Aug 28
Last Quarter

Hourly Weather History & Observations

Time (EDT) Temp. Dew Point Humidity Pressure Visibility Wind Dir Wind Speed Gust Speed Precip Events Conditions
12:53 AM 69.1 °F 66.9 °F 93% 29.92 in 7.0 mi SW 10.4 mph - N/A   Clear
1:53 AM 70.0 °F 68.0 °F 93% 29.90 in 5.0 mi WSW 10.4 mph - N/A   Clear
2:53 AM 69.1 °F 68.0 °F 96% 29.88 in 5.0 mi WSW 12.7 mph - N/A   Mostly Cloudy
3:53 AM 69.1 °F 66.9 °F 93% 29.86 in 6.0 mi SSW 12.7 mph - N/A   Clear
4:53 AM 69.1 °F 66.9 °F 93% 29.87 in 6.0 mi SSW 12.7 mph - N/A   Clear
5:53 AM 69.1 °F 66.9 °F 93% 29.88 in 7.0 mi SW 15.0 mph - N/A   Clear
6:53 AM 69.1 °F 66.9 °F 93% 29.88 in 7.0 mi WSW 15.0 mph - N/A   Clear
7:53 AM 70.0 °F 68.0 °F 93% 29.87 in 5.0 mi SW 10.4 mph - N/A   Clear
8:53 AM 71.1 °F 68.0 °F 90% 29.88 in 5.0 mi WSW 16.1 mph - N/A   Clear
9:53 AM 72.0 °F 66.0 °F 81% 29.88 in 8.0 mi WSW 17.3 mph - N/A   Scattered Clouds
10:53 AM 72.0 °F 64.9 °F 78% 29.88 in 10.0 mi WSW 11.5 mph - N/A   Overcast
11:53 AM 71.1 °F 64.9 °F 81% 29.88 in 10.0 mi WSW 12.7 mph - N/A   Overcast
12:53 PM 69.1 °F 64.9 °F 87% 29.91 in 3.0 mi West 18.4 mph 24.2 mph 0.02 in Rain Rain
1:00 PM 68.0 °F 64.4 °F 88% 29.91 in 1.8 mi West 18.4 mph 26.5 mph 0.04 in Rain Heavy Rain
1:12 PM 68.0 °F 64.4 °F 88% 29.91 in 2.5 mi WSW 12.7 mph 20.7 mph 0.09 in Rain Rain
1:53 PM 68.0 °F 64.9 °F 90% 29.89 in 2.0 mi SW 11.5 mph - 0.20 in Rain Light Rain
2:05 PM 66.2 °F 64.4 °F 94% 29.89 in 6.0 mi WSW 12.7 mph - 0.00 in Rain Light Rain
2:43 PM 66.2 °F 64.4 °F 94% 29.88 in 8.0 mi SW 15.0 mph - 0.02 in Rain Light Rain
2:53 PM 66.9 °F 64.0 °F 90% 29.88 in 9.0 mi SW 13.8 mph - 0.02 in Rain Light Rain
3:53 PM 68.0 °F 64.0 °F 87% 29.86 in 10.0 mi SW 10.4 mph - 0.01 in Rain Light Rain
4:53 PM 70.0 °F 64.9 °F 84% 29.85 in 10.0 mi WSW 12.7 mph - 0.00 in   Clear
5:53 PM 69.1 °F 64.9 °F 87% 29.84 in 8.0 mi SW 11.5 mph - N/A   Clear
6:53 PM 69.1 °F 66.0 °F 90% 29.83 in 7.0 mi WSW 11.5 mph - N/A   Clear
7:53 PM 66.9 °F 64.9 °F 93% 29.85 in 7.0 mi WSW 10.4 mph - N/A   Clear
8:53 PM 66.9 °F 64.9 °F 93% 29.87 in 8.0 mi WSW 13.8 mph - N/A   Clear
9:53 PM 66.9 °F 64.9 °F 93% 29.87 in 8.0 mi West 13.8 mph - N/A   Clear
10:53 PM 68.0 °F 64.9 °F 90% 29.86 in 10.0 mi West 12.7 mph - N/A   Clear
11:53 PM 66.9 °F 64.9 °F 93% 29.85 in 8.0 mi WSW 11.5 mph - N/A   Clear